GW0815 Weather Reports


time (UTC)temp
F
wind
direction
speed
knots
gust
knots
rain 1hr
in
rain 24hr
in
rain mn
in
humidity
%
barometer
mb
20260506014548 67 275 1.7 6.1 0.00 0.00 0.00 61 1015.0
20260506013055 67 223 2.6 7.0 0.00 0.00 0.00 61 1014.9
20260506011554 66 267 3.5 7.0 0.00 0.00 0.00 63 1015.1
20260506010042 66 223 3.5 8.7 0.00 0.00 0.00 63 1015.2
20260506004540 65 251 4.3 8.7 0.00 0.00 0.00 65 1015.1
20260506003037 64 252 2.6 8.7 0.00 0.00 0.00 67 1015.2
20260506001539 63 275 3.5 7.8 0.00 0.00 0.00 67 1015.3
20260506000039 63 269 4.3 8.7 0.00 0.00 0.00 67 1015.4
20260505234533 62 280 6.1 10.4 0.00 0.00 0.00 69 1015.6
20260505233031 62 268 6.1 9.6 0.00 0.00 0.00 69 1015.7
20260505231534 62 286 4.3 8.7 0.00 0.00 0.00 71 1015.7
20260505230034 61 298 5.2 8.7 0.00 0.00 0.00 72 1015.8
20260505224525 61 286 5.2 9.6 0.00 0.00 0.00 72 1015.9
20260505223030 60 277 4.3 8.7 0.00 0.00 0.00 73 1016.1
20260505221525 60 252 3.5 9.6 0.00 0.00 0.00 75 1016.2
20260505220020 59 269 4.3 9.6 0.00 0.00 0.00 74 1016.3
20260505214524 59 292 5.2 8.7 0.00 0.00 0.00 75 1016.4
20260505213019 59 269 6.1 9.6 0.00 0.00 0.00 76 1016.5
20260505211518 59 308 4.3 8.7 0.00 0.00 0.00 75 1016.5
20260505210016 59 238 4.3 9.6 0.00 0.00 0.00 75 1016.5
20260505204516 59 219 4.3 7.8 0.00 0.00 0.00 76 1016.5
20260505203013 58 280 5.2 9.6 0.00 0.00 0.00 76 1016.5
20260505201513 58 259 3.5 7.0 0.00 0.00 0.00 77 1016.5
20260505200008 58 229 3.5 10.4 0.00 0.00 0.00 78 1016.4
20260505194508 58 252 4.3 9.6 0.00 0.00 0.00 77 1016.5
20260505193006 57 259 4.3 7.8 0.00 0.00 0.00 78 1016.5
20260505191505 57 223 3.5 7.8 0.00 0.00 0.00 79 1016.4
20260505190003 57 220 2.6 7.8 0.00 0.00 0.00 80 1016.4
20260505184502 56 257 1.7 8.7 0.00 0.00 0.00 81 1016.4
20260505183107 56 208 5.2 7.8 0.00 0.00 0.00 82 1016.4
20260505181558 55 211 4.3 9.6 0.00 0.00 0.00 81 1016.4
20260505180058 55 218 4.3 7.0 0.00 0.00 0.00 82 1016.3
20260505174600 55 238 4.3 7.8 0.00 0.00 0.00 83 1016.3
20260505173054 55 227 5.2 8.7 0.00 0.00 0.00 83 1016.3
20260505171553 55 270 2.6 4.3 0.00 0.00 0.00 84 1016.2
20260505170050 55 269 2.6 4.3 0.00 0.00 0.00 84 1016.1
20260505164549 55 261 1.7 6.1 0.00 0.00 0.00 84 1016.0
20260505163047 54 255 3.5 7.0 0.00 0.00 0.00 84 1015.9
20260505161546 54 211 2.6 6.1 0.00 0.00 0.00 85 1015.8
20260505153043 54 240 2.6 7.0 0.00 0.00 0.00 86 1015.6
20260505151542 54 251 3.5 7.0 0.00 0.00 0.00 86 1015.6
20260505124534 53 222 6.1 10.4 0.00 0.00 0.00 88 1014.3
20260505123030 53 226 3.5 7.0 0.00 0.00 0.00 88 1014.2
20260505121534 53 234 5.2 7.0 0.00 0.00 0.00 87 1014.1
20260505120037 53 215 4.3 8.7 0.00 0.00 0.00 87 1014.0
20260505114523 53 229 5.2 8.7 0.00 0.00 0.00 87 1014.0
20260505113127 53 182 6.1 10.4 0.00 0.00 0.00 87 1013.9
20260505111521 53 210 5.2 10.4 0.00 0.00 0.00 88 1013.9
20260505101514 53 220 7.0 9.6 0.00 0.00 0.00 89 1013.4
20260505100014 53 213 7.0 12.2 0.00 0.00 0.00 89 1013.4
20260505094510 53 219 6.1 8.7 0.00 0.00 0.00 89 1013.3
20260505093009 53 206 7.8 14.8 0.00 0.00 0.00 89 1013.2
20260505091509 53 226 8.7 12.2 0.00 0.00 0.00 89 1013.1
20260505090016 53 220 8.7 16.5 0.00 0.00 0.00 89 1013.0
20260505084505 53 218 9.6 12.2 0.00 0.00 0.00 89 1012.9
20260505083012 53 232 8.7 11.3 0.00 0.00 0.00 89 1013.0
20260505081503 53 198 7.8 10.4 0.00 0.00 0.00 89 1012.9
20260505074558 53 201 7.0 9.6 0.00 0.00 0.00 89 1012.7
20260505073113 53 236 7.0 11.3 0.00 0.00 0.00 89 1012.5
20260505071600 53 200 8.7 12.2 0.00 0.00 0.00 89 1012.2
20260505070056 53 213 7.0 10.4 0.00 0.00 0.00 88 1012.3
20260505064550 53 225 6.1 9.6 0.00 0.00 0.00 88 1012.3
20260505063045 53 198 7.0 10.4 0.00 0.00 0.00 87 1012.1
20260505061545 54 201 6.1 7.8 0.00 0.00 0.00 86 1011.9
20260505060046 54 182 5.2 8.7 0.00 0.00 0.00 86 1011.8
20260505054536 54 225 6.1 8.7 0.00 0.00 0.00 85 1011.5
20260505053034 55 190 5.2 7.8 0.00 0.00 0.00 85 1011.6
20260505051539 55 222 4.3 7.8 0.00 0.00 0.00 84 1011.5
20260505041528 57 225 9.6 17.4 0.00 0.00 0.00 79 1010.7
20260505040026 58 209 10.4 13.9 0.00 0.00 0.00 76 1010.6
20260505034525 60 217 7.8 14.8 0.00 0.00 0.00 74 1010.3
20260505033025 61 234 8.7 15.6 0.00 0.00 0.00 70 1010.2
20260505031524 63 222 7.8 13.0 0.00 0.00 0.00 68 1010.1
20260505030023 64 227 7.8 13.0 0.00 0.00 0.00 65 1009.8
20260505024522 66 237 8.7 13.9 0.00 0.00 0.00 62 1009.7
20260505023024 67 257 8.7 15.6 0.00 0.00 0.00 60 1009.7
20260505021621 68 225 7.8 15.6 0.00 0.00 0.00 58 1009.6
20260505020021 70 248 8.7 16.5 0.00 0.00 0.00 54 1009.5